LiveATC.Net - Listen to live air traffic control over the Internet!


ICAO: KSPK  IATA: SPK   Airport: Spanish Fork Municipal Airport/Woodhouse Field
City: Spanish Fork   State/Province: Utah
Country: United States   Continent: North America
KSPK METAR Weather: KSPK 060655Z AUTO 13015KT 10SM CLR 26/04 A2998 RMK AO2
KSPK Flight Activity (FlightAware)
KSPK Airport Info   (iFlightPlanner)
KSPK VFR Sectional Chart   (iFlightPlanner) 
KSPK IFR Low Altitude Chart   (iFlightPlanner) 
KSPK IFR High Altitude Chart   (iFlightPlanner) 

KSPK CTAF
Feed Status: DOWN
Last heard on: 2022-07-04 05:00:06 (2 days 2 hours 11 minutes ago)
Archive Access: KSPK CTAF
FacilityFrequency
Spanish Fork CTAF122.900

NOTICE

Unauthorized use prohibited. See LiveATC.net Terms of Service


Airport/ARTCC Code
Frequency Search
(e.g., 124.400, 128.75)
Site-wide search
 


Browse Feeds
Top 50 Feeds
HF Oceanic Feeds
Coverage Map
Bad Weather Areas

LiveATC FAQ
Offer LiveATC feed
Contact LiveATC.net
Press Inquiries

LiveATC on iPhone
LiveATC on Android

LiveATC Mobile
(Mobile browser)

ATC Audio Archives
Interesting Recordings

LiveATC Forums


Home Page
About LiveATC.net


Terms of Use
Privacy Policy

AIRMETs/SIGMETs

FAA Airport Status
NAS Status
Arrival Demand


Server Software By:
Icecast.org
Liquidsoap